Regional Weather Roundup
Issued by NWS

Home | Current Version | Previous Version | Graphics & Text | Print | Product List | Glossary On
Versions: 1 2 3 4 5 6 7 8 9 10 11 12 13 14 15 16 17 18 19 20 21 22 23 24 25 26 27 28 29 30 31 32 33 34 35 36 37 38 39 40 41 42 43 44 45 46 47 48 49 50
068
ASUS43 KLOT 052208
RWRIL

ILLINOIS REGIONAL WEATHER ROUNDUP
NATIONAL WEATHER SERVICE CHICAGO/ROMEOVILLE IL
400 PM CST MON DEC 05 2016

NOTE: "FAIR" INDICATES FEW OR NO CLOUDS BELOW 12,000 FEET WITH NO
SIGNIFICANT WEATHER AND/OR OBSTRUCTIONS TO VISIBILITY.

* THESE STATIONS ARE NOT UNDER NWS QUALITY CONTROL. THEY ALSO MAY NOT
  REPORT WEATHER SUCH AS PRECIPITATION OR FOG.

ILZ001-002-007-009-015-016-024-052300-
NORTHWEST ILLINOIS

CITY           SKY/WX    TMP DP  RH WIND       PRES   REMARKS
MOLINE         CLOUDY    35  32  88 SE10      29.93R FOG     WCI  27
STERLING*      CLOUDY    34  32  92 SE6       29.97R WCI  29
SAVANNA*       CLOUDY    34  32  93 SE8       29.94S FOG     WCI  27
$$

ILZ003-004-008-010-011-017-018-052300-
NORTH CENTRAL ILLINOIS

CITY           SKY/WX    TMP DP  RH WIND       PRES   REMARKS
ROCKFORD       CLOUDY    33  31  92 S9        29.98F WCI  25
FREEPORT*      CLOUDY    32  32  99 SE9       29.96F FOG     WCI  24
ROCHELLE*      CLOUDY    32  31  99 S10       29.98R FOG     WCI  23
DE KALB*       FOG       31  31  99 S10       29.98S VSB 1/2 WCI  23
$$

ILZ005-006-012>014-019>023-052300-
NORTHEAST ILLINOIS

CITY           SKY/WX    TMP DP  RH WIND       PRES   REMARKS
CHICAGO-OHARE  CLOUDY    32  30  92 S8        29.99F FOG     WCI  25
CHICAGO-MIDWAY CLOUDY    33  29  85 S6G22     30.01S WCI  28
AURORA         CLOUDY    33  30  88 SE12      29.99F FOG     WCI  24
LANSING*       CLOUDY    32  32 100 S10       30.01F WCI  24
JOLIET*        CLOUDY    33  32  96 S8        30.00S WCI  26
WAUKEGAN       CLOUDY    33  31  92 S8        29.99F FOG     WCI  26
DUPAGE AIRPORT CLOUDY    33  30  88 SE7       29.98F FOG     WCI  27
KANKAKEE*      CLOUDY    33  32  95 CALM      30.01F
WHEELING       CLOUDY    32  30  92 S8        30.01F WCI  25
MORRIS*        CLOUDY    32  31  96 S9        29.98F FOG     WCI  24
ROMEOVILLE*    CLOUDY    32  32 100 S10       29.99S FOG     WCI  23
NORTHERLY ISL    N/A     33  31  92 S7          N/A  WCI  27
$$

LMZ740>746-052300-
SOUTHERN LAKE MICHIGAN

STATION/POSITION SKY/WX   TEMP    WIND        PRES    VSBY  WAVE
                          AIR SEA DIR/SP/G                  HT/PER
                          (F)     (DEG/KT/KT) (MB)    (MI)  (FT/S)
HARRISON CRIB              35     200/ 10/ 11   N/A
BURNHAM HARBOR             33     160/  6/ 11   N/A
CALUMET HARBOR             33     160/  8/ 12 1015.7F
BURNS HARBOR               33     160/  9/ 15 1016.9F
$$

ILZ025>027-034>036-040-047-049-050-058-095>099-052300-
WEST-CENTRAL ILLINOIS

CITY           SKY/WX    TMP DP  RH WIND       PRES   REMARKS
QUINCY         CLOUDY    39  36  89 SE12      29.89S FOG     WCI  32
GALESBURG*     CLOUDY    34  33  95 SE8       29.91F WCI  27
MACOMB*        CLOUDY    37  36  95 SE10      29.93F WCI  30
JACKSONVILLE*  MOCLDY    39  36  91 SE8       29.92F WCI  33
PITTSFIELD*    PTCLDY    41  38  89 E7        29.90F
$$

ILZ028>032-037-038-041>044-048-051>054-059>061-052300-
CENTRAL ILLINOIS

CITY           SKY/WX    TMP DP  RH WIND       PRES   REMARKS
PONTIAC        CLOUDY    33  33 100 SE8       29.97F WCI  26
BLOOMINGTON    CLOUDY    33  32  96 SE10      29.96S FOG     WCI  25
DECATUR        PTCLDY    39  35  86 SE7       29.96S WCI  34
PEORIA         CLOUDY    35  34  96 SE8       29.94F WCI  29
LACON*         CLOUDY    32  32  98 SE7       29.94F FOG     WCI  26
LINCOLN*       CLOUDY    38  36  91 E6        29.94F FOG     WCI  34
SPRINGFIELD    MOCLDY    40  36  86 SE9       29.94F
TAYLORVILLE    CLOUDY    40  36  84 SE7       29.94F
$$

ILZ033-039-045-046-055>057-062-063-052300-
EAST-CENTRAL ILLINOIS

CITY           SKY/WX    TMP DP  RH WIND       PRES   REMARKS
CHAMPAIGN      CLOUDY    39  35  86 E9        29.96S WCI  33
RANTOUL*       PTCLDY    38  36  92 E7        29.97S WCI  33
MATTOON        PTCLDY    40  33  76 SE12      29.95F
PARIS*         PTCLDY    42  36  78 SE5       29.99S
$$

ILZ079-100>102-052300-
SOUTHWEST ILLINOIS

CITY           SKY/WX    TMP DP  RH WIND       PRES   REMARKS
ALTON          PTCLDY    41  36  81 SE12      29.91F
BELLEVILLE     CLEAR     43  37  78 E10       29.90F
CAHOKIA*       CLEAR     45  35  68 E9        29.89F
SPARTA*        CLEAR     41  35  79 E10       29.92F
$$

ILZ064>066-069>071-074>076-080>082-084>086-088>090-092>094-052300-
SOUTH-CENTRAL ILLINOIS

CITY           SKY/WX    TMP DP  RH WIND       PRES   REMARKS
CARBONDALE     PTCLDY    41  36  82 E9        29.92F
CAIRO*         PTCLDY    42  37  80 E10       29.91F
EFFINGHAM*     PTCLDY    42  37  85 E8        29.97F
MARION         MOCLDY    43  36  75 E9        29.93F
CENTRALIA*     PTCLDY    40  36  83 SE6       29.94F
SALEM*         PTCLDY    42  35  74 E6        29.94F
METROPOLIS*    MOCLDY    42  37  80 CALM      29.94S
$$

ILZ067-068-072-073-078-083-087-091-052300-
SOUTHEAST ILLINOIS

CITY           SKY/WX    TMP DP  RH WIND       PRES   REMARKS
LAWRENCEVILLE  PTCLDY    42  35  76 SE7       29.99F
FLORA*         PTCLDY    41  36  81 E8        29.97F
FAIRFIELD*     CLOUDY    40  35  83 E3        29.95F
HARRISBURG*    MOCLDY    42  37  83 SE9       29.94F
ROBINSON*      PTCLDY    41  35  80 SE5       30.01R
CARMI*         PTCLDY    41  37  85 E7        29.96F
$$

ABBREVIATIONS USED IN REMARKS
   TC - TEMPERATURE IN CELSIUS
  WCI - WIND CHILL INDEX
   HX - HEAT INDEX
  VSB - VISIBILITY
$$





USA.gov is the U.S. government's official web portal to all federal, state and local government web resources and services.